Weather in Lohne

Germany     52°11′24″N   8°41′14″E
temp.,
°C
wind,
m/s
gust,
m/s
humid.,
%
clouds,
%
prec.,
mm/h
press.,
hPa
HPBL,
m
10 april, sat
sat1023:00+4ne2292100 0.0 101330
02:00+3nne3598100 0.0 1013137
05:00+4nne2596100 0.7 1013272
08:00+4ne3695100 1.1 1015417
11:00+5ene4589100 0.0 1015598
14:00+6e4590100 0.1 1016701
17:00+6e5893100 0.6 1014527
20:00+5e5996100 3.6 1011584
11 april, sun
sun1123:00+6ese4996100 6.2 1010428
02:00+8s51294100 8.3 1008456
05:00+8ssw51293100 3.7 1007529
08:00+7w4897100 3.8 1008478
11:00+4wnw4595100 0.0 1011364
14:00+3nw4594100 0.2 1012480
17:00+4nnw5892100 1.3 1014631
20:00+3nnw5987100 1.8 1016702
12 april, mon
mon1223:00+2nw4994100 0.1 1018477
02:00+2nw4889100 0.1 1020347
05:00+2nw4989100 0.0 1022386
08:00+1wnw3686100 0.0 1024250
11:00+5wnw4567100 0.0 10251041
14:00+8wnw5643100 0.1 10252490
17:00+8wnw674973 0.2 10251657
20:00+3nw237449 0.8 102735
13 april, tue
tue1323:000wnw22813 0.0 102921
02:00−1wsw22865 0.0 103020
05:00−1sw23905 0.0 103056
08:00+1wsw498429 0.0 1031315
11:00+6nw566438 0.4 10311367
14:00+8nnw5649100 1.1 10301942
17:00+8nnw674665 0.2 10301920
20:00+4nnw49660 0.3 1031249
14 april, wed
wed1423:000nw22861 0.0 103322
02:00−1wnw22915 0.0 103315
05:00−1w22935 0.0 103316
08:00+1w23855 0.0 1033169
11:00+6nnw565893 0.2 10331659
14:00+8n5644100 0.2 10312118
17:00+8n565548 0.3 10301665
20:00+4n51084100 0.9 1031321